Location: Finkenwalde
(53.3770°N, 14.6418°E)
Time: 10:09:36
(UTC+00:00)

Cosmos 1655 Rocket - Pass Details

Date: 05 February 2023
Orbit: 970 x 1006 km, 83.0° (Epoch: 19 March)

Event Time Altitude Azimuth Distance (km) Brightness Sun altitude
Rises 16:36:34 0° 348° (NNW) 3,701 7.0 -7.0°
Reaches altitude 10° 16:39:07 10° 347° (NNW) 2,744 6.3 -7.4°
Maximum altitude 16:45:22 74° 264° (W) 1,018 4.3 -8.3°
Drops below altitude 10° 16:51:33 10° 181° (S) 2,710 6.5 -9.2°
Sets 16:54:02 0° 179° (S) 3,651 7.2 -9.5°
